Regional Weather Roundup
Issued by NWS

Home | Current Version | Previous Version | Graphics & Text | Print | Product List | Glossary On
Versions: 1 2 3 4 5 6 7 8 9 10 11 12 13 14 15 16 17 18 19 20 21 22 23 24 25 26 27 28 29 30 31 32 33 34 35 36 37 38 39 40 41 42 43 44 45 46 47 48 49 50
000
ASUS43 KMKX 220700
RWRWI

WISCONSIN REGIONAL WEATHER ROUNDUP
NATIONAL WEATHER SERVICE MILWAUKEE/SULLIVAN WI
100 AM CST MON JAN 22 2018

NOTE: "FAIR" INDICATES FEW OR NO CLOUDS BELOW 12,000 FEET WITH NO
SIGNIFICANT WEATHER AND/OR OBSTRUCTIONS TO VISIBILITY.

WIZ001-002-006>008-014>016-023>028-220800-
NORTHWEST WISCONSIN

CITY           SKY/WX    TMP DP  RH WIND       PRES   REMARKS
SUPERIOR ARPT  CLOUDY    30  29  99 NE18G24   30.05F WCI  17
ASHLAND        LGT SNOW  29  28  96 NE20G25   30.06S FOG     WCI  16
HAYWARD        CLOUDY    31  28  89 NE12G21   29.99F WCI  22
SIREN          CLOUDY    31  30  93 NE12      29.98F WCI  22
CUMBERLAND     MOCLDY    32  28  86 NE12      29.94S WCI  23
RICE LAKE      MOCLDY    32  30  91 N12       29.95S WCI  23
CHETEK         CLOUDY    34  30  86 NE6       29.93F WCI  29
LADYSMITH      CLOUDY    34  30  86 NE9       29.95F WCI  27
EAU CLAIRE     NOT AVBL
MENOMONIE      CLOUDY    38  31  77 N8        29.92R WCI  32
NEW RICHMOND   CLOUDY    34  28  80 N12       29.93S WCI  25
OSCEOLA        CLOUDY    33  29  83 N8        29.97S WCI  27
$$

WIZ003>005-009-010-017-018-220800-
NORTH CENTRAL WISCONSIN

CITY           SKY/WX    TMP DP  RH WIND       PRES   REMARKS
MANITOWISH WTR CLOUDY    30  30 100 NE6       29.98S WCI  24
ARBOR VITAE    CLOUDY    32  31  94 NE5       29.96F WCI  28
WOODRUFF       CLOUDY    32  31  94 NE5       29.96F WCI  28
RHINELANDER    CLOUDY    33  31  92 VRB7      29.94F WCI  27
EAGLE RIVER    CLOUDY    31  31  99 NE7       29.96F WCI  25
LAND O LAKES   CLOUDY    32  31  96 E3        30.00S
PHILLIPS       CLOUDY    31  30  96 NE9       29.93F WCI  23
TOMAHAWK       CLOUDY    33  29  86 N5        29.94F WCI  28
MEDFORD        CLOUDY    34  30  85 E13       29.91S WCI  25
MERRILL        CLOUDY    35  31  85 E6        29.93F WCI  30
$$

WIZ029-030-035-036-043>047-220800-
CENTRAL WISCONSIN

CITY           SKY/WX    TMP DP  RH WIND       PRES   REMARKS
WAUSAU         CLOUDY    35  30  82 E9        29.90F WCI  28
MOSINEE        CLOUDY    34  32  93 NE14      29.92S WCI  24
MARSHFIELD     CLOUDY    35  31  85 E12       29.88F WCI  27
STEVENS POINT  CLOUDY    33  30  90 NE10      29.91S WCI  25
WAUPACA        LGT RAIN  37  33  87 NE7       29.91F WCI  31
WAUTOMA        CLOUDY    35  34  96 NE12      29.89F FOG     WCI  27
WISC RAPIDS    CLOUDY    36  31  82 E10       29.89F HAZE    WCI  28
CAMP DOUGLAS   CLOUDY    36  36  99 NE7       29.83F FOG     WCI  31
$$

WIZ011>013-019>022-031-037>040-048>050-220800-
NORTHEAST WISCONSIN

CITY           SKY/WX    TMP DP  RH WIND       PRES   REMARKS
ANTIGO         CLOUDY    33  31  92 NE9       29.93F WCI  25
SHAWANO        CLOUDY    36  32  87 NE9       29.94F WCI  29
OCONTO         CLOUDY    33  32  96 NE8       29.96F WCI  26
STURGEON BAY   LGT RAIN  34  34 100 NE10      29.95F VSB 1/4 WCI  26
GREEN BAY      FOG       33  31  92 NE16      29.93F VSB 1/4 WCI  23
MANITOWOC      MIX PCPN  36  36 100 NE8       29.92F FOG     WCI  30
APPLETON       CLOUDY    32  32 100 NE13      29.89F FOG     WCI  22
CLINTONVILLE   CLOUDY    34  32  93 E12G18    29.93F FOG     WCI  25
OSHKOSH        CLOUDY    34  33  96 NE10      29.88F FOG     WCI  26
$$

WIZ032>034-041-042-053>061-220800-
SOUTHWEST WISCONSIN

CITY           SKY/WX    TMP DP  RH WIND       PRES   REMARKS
LA CROSSE      LGT RAIN  39  35  86 NE8       29.81F FOG     WCI  33
SPARTA         LGT RAIN  36  35  95 NE9       29.85F WCI  29
VIROQUA        CLOUDY    37  37 100 NE15      29.78F WCI  28
BOSCOBEL       LGT RAIN  38  37  97 NE6       29.78F FOG     WCI  33
PRAIRIE DU CHI CLOUDY    38  36  91 E5        29.76F WCI  35
PLATTEVILLE    CLOUDY    37  37 100 NE15G22   29.74F WCI  28
$$

WIZ056-057-062-063-064-067-068-220800-
SOUTH CENTRAL WISCONSIN

CITY           SKY/WX    TMP DP  RH WIND       PRES   REMARKS
REEDSBURG      CLOUDY    35  35 100 NE9G16    29.83F FOG     WCI  27
BARABOO/DELLS  DRZL/FOG  34  34  99 E13       29.84F VSB 1   WCI  25
LONE ROCK      CLOUDY    38  37  97 E14G24    29.79F FOG     WCI  30
MINERAL POINT  CLOUDY    37  37 100 E17       29.75F FOG     WCI  28
MADISON        CLOUDY    36  35  96 NE13      29.81F FOG     WCI  27
MIDDLETON      CLOUDY    37  37 100 NE8       29.82F WCI  31
WATERTOWN      DRIZZLE   36  36 100 NE12      29.82F WCI  28
MONROE         LGT RAIN  36  36 100 NE13      29.75F VSB 1/4 WCI  27
JANESVILLE     DRIZZLE   37  37 100 NE9       29.78F WCI  31
$$

WIZ051-052-058>065-066-070>072-220800-
SOUTHEAST WISCONSIN

CITY           SKY/WX    TMP DP  RH WIND       PRES   REMARKS
MILWAUKEE      DRZL/FOG  37  37 100 NE9       29.83F VSB 1/4 WCI  30
WAUKESHA       CLOUDY    34  34 100 E9G16     29.84F FOG     WCI  26
MILWAUKEE/TIMM RAIN      36  34  93 NE8       29.85F WCI  29
RACINE         LGT RAIN  37  37 100 NE9       29.84F VSB 1/4 WCI  30
BURLINGTON     CLOUDY    37  37  98 NE10      29.81F FOG     WCI  30
KENOSHA        FOG       38  37  97 NE9       29.81F VSB 1/4 WCI  31
FOND DU LAC    MIX PCPN  37  34  89 NE8       29.88S FOG     WCI  31
SHEBOYGAN      LGT RAIN  36  36 100 NE12      29.88F FOG     WCI  28
WEST BEND      LGT RAIN  34  34 100 NE9       29.86F VSB 3/4 WCI  26
JUNEAU         LGT RAIN  35  34  98 NE10      29.85F WCI  27
$$

LSZ147-162-220800-
LAKE SUPERIOR

STATION/POSITION TIME  TEMP    WIND        PRES    WAVE
                       AIR SEA DIR/SP/G            HT/PER
                 (UTC) (F)     (DEG/KT/KT) (MB)    (FT/S)
DEVILS ISLAND    0600   27      60/ 24/ 26 1020.1F
SAXON HARBOR     0640   30      60/ 18/ 21 1016.9F
$$

LMZ867-665-643>646-220800-
LAKE MICHIGAN

STATION/POSITION TIME  TEMP    WIND        PRES    WAVE
                       AIR SEA DIR/SP/G            HT/PER
                 (UTC) (F)     (DEG/KT/KT) (MB)    (FT/S)
NORTHPORT PIER   0640   33      30/  5/  8 1015.6F
KEWAUNEE LAKESHO 0630   35      30/  8/ 12 1013.3F
SHEBOYGAN LAKESH 0600   36      40/ 14/ 15 1013.0F
PORT WASHINGTON  0640   36      30/ 13/ 15 1012.5F
MILWAUKEE LAKESH 0630   36      20/ 12/ 13   N/A
KENOSHA   LAKESH 0600   35      30/  8/ 12 1010.8
$$

TC  - TEMPERATURE IN CELSIUS
VSB - VISIBILITY IN STATUTE MILES
WCI - WIND CHILL INDEX
HX  - HEAT INDEX





USA.gov is the U.S. government's official web portal to all federal, state and local government web resources and services.